Norman Wells, Northwest Territories

1:40 PM MST on December 03, 2016 (GMT -0700)
Norman Wells

Weather History for CYVQ - January, 2013

Change the Weather History Date:

Monday, January 21, 2013

  Actual Average Record
Temperature  
Mean Temperature -30 °F -  
Max Temperature -20 °F -6 °F 32 °F (2008)
Min Temperature -40 °F -19 °F -47 °F (2011)
Degree Days  
Heating Degree Days 95    
Moisture  
Dew Point -34 °F    
Average Humidity 67    
Maximum Humidity 76    
Minimum Humidity 52    
Precipitation  
Precipitation 0.00 in - - ()
Sea Level Pressure  
Sea Level Pressure 30.63 in    
Wind  
Wind Speed 4 mph ()    
Max Wind Speed 8 mph    
Max Gust Speed -    
Averages and records for this station are not official NWS values.
T = Trace of Precipitation, MM = Missing Value Source: Averaged Metar Reports

Daily Weather History Graph

Daily Weather History Graph

Search for Another Location

Airport or City:

Trip Planner

Search our weather history database for the weather conditions in past years. The results will help you decide how hot, cold, wet, or windy it might be!

Date:

Astronomy

Jan. 21, 2013 Rise Set
Actual Time 10:50 AM MST 4:27 PM MST
Civil Twilight 9:42 AM MST 5:35 PM MST
Nautical Twilight 8:37 AM MST 6:41 PM MST
Astronomical Twilight 7:37 AM MST 7:40 PM MST
Moon 11:58 AM MST (1/21) 6:34 AM MST (1/21)
Length of Visible Light 7h 53m
Length of Day
5h 37m
Waxing Gibbous, 75% of the Moon is Illuminated
Jan 21
Waxing Gibbous
Jan 26
Full
Feb 3
Last Quarter
Feb 10
New
Feb 17
First Quarter

Hourly Weather History & Observations

Time (MST) Temp. Windchill Dew Point Humidity Pressure Visibility Wind Dir Wind Speed Gust Speed Precip Events Conditions
12:00 AM -36.4 °F -49.4 °F -43.6 °F 67% 30.63 in 30.0 mi NNW 3.5 mph - N/A   Partly Cloudy
1:00 AM -34.6 °F - -41.8 °F 68% 30.62 in 30.0 mi Calm Calm - N/A   Partly Cloudy
2:00 AM -34.6 °F -50.3 °F -41.8 °F 68% 30.60 in 30.0 mi SW 4.6 mph - N/A   Scattered Clouds
3:00 AM -32.8 °F - -40.0 °F 68% 30.61 in 30.0 mi Calm Calm - N/A   Scattered Clouds
4:00 AM -31.0 °F -46.1 °F -38.2 °F 68% 30.58 in 30.0 mi West 4.6 mph - N/A   Scattered Clouds
5:00 AM -31 °F - -38 °F 52% 30.60 in 28 mi WNW 5.8 mph - -   Scattered Clouds
5:00 AM -31.0 °F -48.4 °F -38.2 °F 68% 30.60 in 30.0 mi WNW 5.8 mph - N/A   Partly Cloudy
6:00 AM -29.2 °F -44.0 °F -36.4 °F 68% 30.61 in 30.0 mi WSW 4.6 mph - N/A   Scattered Clouds
7:00 AM -29.2 °F -41.2 °F -36.4 °F 68% 30.61 in 30.0 mi WNW 3.5 mph - N/A   Mostly Cloudy
8:00 AM -27.4 °F -41.9 °F -34.6 °F 69% 30.61 in 30.0 mi WNW 4.6 mph - N/A   Mostly Cloudy
9:00 AM -25.6 °F -39.8 °F -32.8 °F 69% 30.61 in 30.0 mi WNW 4.6 mph - N/A   Mostly Cloudy
10:00 AM -25.6 °F -41.9 °F -32.8 °F 69% 30.61 in 30.0 mi West 5.8 mph - N/A   Mostly Cloudy
11:00 AM -25 °F - -32 °F 52% 30.63 in 28 mi WNW 5.8 mph - -   Partly Cloudy
11:00 AM -25.6 °F -43.8 °F -32.8 °F 69% 30.63 in 30.0 mi West 6.9 mph - N/A   Mostly Cloudy
12:00 PM -23.8 °F -39.8 °F -31.0 °F 69% 30.63 in 30.0 mi WNW 5.8 mph - N/A   Mostly Cloudy
1:00 PM -23.8 °F -43.2 °F -31.0 °F 69% 30.64 in 30.0 mi WNW 8.1 mph - N/A   Mostly Cloudy
2:00 PM -23.8 °F -35.0 °F -29.2 °F 76% 30.65 in 30.0 mi WNW 3.5 mph - N/A   Mostly Cloudy
3:00 PM -22.0 °F -41.0 °F -29.2 °F 69% 30.66 in 30.0 mi West 8.1 mph - N/A   Mostly Cloudy
4:00 PM -20.2 °F -37.3 °F -27.4 °F 69% 30.64 in 30.0 mi West 6.9 mph - N/A   Mostly Cloudy
5:00 PM -21 °F - -27 °F 58% 30.65 in 28 mi West 8.1 mph - -   Overcast
5:00 PM -20.2 °F -38.8 °F -27.4 °F 69% 30.65 in 30.0 mi West 8.1 mph - N/A   Overcast
6:00 PM -20.2 °F -37.3 °F -27.4 °F 69% 30.66 in 30.0 mi West 6.9 mph - N/A   Mostly Cloudy
7:00 PM -22.0 °F - -27.4 °F 76% 30.66 in 30.0 mi WSW 2.3 mph - N/A   Mostly Cloudy
7:24 PM -22.0 °F -39.4 °F -29.2 °F 69% 30.65 in 30.0 mi West 6.9 mph - N/A   Ice Crystals
8:00 PM -23.8 °F - -31.0 °F 69% 30.66 in 30.0 mi Calm Calm - N/A   Ice Crystals
9:00 PM -25.6 °F - -32.8 °F 69% 30.66 in 30.0 mi Calm Calm - N/A   Ice Crystals
10:00 PM -31.0 °F - -38.2 °F 68% 30.66 in 30.0 mi Calm Calm - N/A   Ice Crystals
11:00 PM -33 °F - -40 °F 52% 30.66 in 28 mi East 3.5 mph - - Snow Snow
11:00 PM -32.8 °F -45.3 °F -40.0 °F 68% 30.66 in 30.0 mi ENE 3.5 mph - N/A   Ice Crystals